Location: D?uga
(50.2667°N, 19.7833°E)
Time: 16:36:53
(UTC+00:00)

Cosmos 841 Rocket - Pass Details

Date: 23 May 2024
Orbit: 744 x 770 km, 74.0° (Epoch: 12 June)

Event Time Altitude Azimuth Distance (km) Brightness Sun altitude
Rises 00:24:53 0° 333° (NNW) 3,233 7.3 -15.2°
Reaches altitude 10° 00:27:17 10° 329° (NNW) 2,307 6.4 -15.1°
Maximum altitude 00:32:25 58° 252° (WSW) 894 3.6 -14.7°
Enters shadow 00:36:20 17° 178° (S) 1,860 5.0 -14.4°
